Retour au catalogue

STARLINK-2190

ActifCommunicationsVLEO
NORAD 48564·PAYLOAD·🇺🇸 United States

Lancé May 15, 2021 depuis Cape Canaveral Space Force Station

Loading…

Prochains Passages (prochaines 24 heures)

TLE

FraisSource: CelesTrak SupGP

Époque: Sep 14, 2026, 20:34 UTC

1 48564C 21041M   26257.85743056 -.00030721  00000+0 -98789-3 0  2570
2 48564  53.1604 326.3689 0001116  79.1497 306.9413 15.31718061    11

Suivez STARLINK-2190 en temps réel avec AllMySat

Download on the App Store